N4MRV-1 Weather Reports


time (UTC)temp
C
wind
direction
speed
KPH
gust
KPH
rain 1hr
cm
rain 24hr
cm
rain mn
cm
humidity
%
barometer
mb
20260503041517 10 0.0 3.2 0.00 0.00 0.00 71 1013.9
20260503040017 10 0.0 3.2 0.00 0.00 0.00 71 1013.8
20260503034516 10 0.0 0.0 0.00 0.00 0.00 73 1013.9
20260503033016 10 0.0 0.0 0.00 0.00 0.00 73 1013.8
20260503031516 10 0.0 0.0 0.00 0.00 0.00 72 1013.7
20260503030016 10 0.0 0.0 0.00 0.00 0.00 72 1013.8
20260503024515 10 0.0 0.0 0.00 0.00 0.00 72 1013.8
20260503023015 10 0.0 0.0 0.00 0.00 0.00 71 1013.7
20260503021516 11 0.0 0.0 0.00 0.00 0.00 71 1013.7
20260503020016 11 0.0 0.0 0.00 0.00 0.00 69 1013.5
20260503014515 11 0.0 0.0 0.00 0.00 0.00 68 1013.5
20260503013015 11 0.0 1.6 0.00 0.00 0.00 66 1013.4
20260503011536 11 0.0 3.2 0.00 0.00 0.00 66 1013.2
20260503010015 12 0.0 0.0 0.00 0.00 0.00 64 1013.1
20260503004515 12 0.0 0.0 0.00 0.00 0.00 61 1013.0
20260503003015 12 0.0 1.6 0.00 0.00 0.00 59 1012.8
20260503001515 13 0.0 0.0 0.00 0.00 0.00 56 1012.7
20260503000015 13 0.0 1.6 0.00 0.00 0.00 51 1012.4
20260502234515 13 0.0 3.2 0.00 0.00 0.00 51 1012.2
20260502233015 13 0.0 3.2 0.00 0.00 0.00 50 1012.0
20260502231515 14 0.0 1.6 0.00 0.00 0.00 51 1011.9
20260502230015 14 0.0 1.6 0.00 0.00 0.00 47 1011.7
20260502224515 15 0.0 3.2 0.00 0.00 0.00 48 1011.5
20260502223015 15 0 1.6 6.4 0.00 0.00 0.00 43 1011.6
20260502221517 15 315 1.6 4.8 0.00 0.00 0.00 43 1011.8
20260502220037 15 0 1.6 6.4 0.00 0.00 0.00 43 1011.9
20260502214517 15 0 1.6 8.0 0.00 0.00 0.00 43 1011.8
20260502213017 15 0 1.6 6.4 0.00 0.00 0.00 42 1011.8
20260502211517 15 0 1.6 4.8 0.00 0.00 0.00 43 1011.8
20260502210017 15 0 1.6 6.4 0.00 0.00 0.00 43 1011.7
20260502204537 15 0 1.6 4.8 0.00 0.00 0.00 43 1011.8
20260502203017 15 0 1.6 9.7 0.00 0.00 0.00 42 1011.9
20260502201517 16 0 1.6 4.8 0.00 0.00 0.00 43 1012.0
20260502200017 15 0 1.6 8.0 0.00 0.00 0.00 46 1011.9
20260502194517 15 0 3.2 12.9 0.00 0.00 0.00 43 1012.0
20260502193017 15 158 1.6 6.4 0.00 0.00 0.00 50 1012.2
20260502191516 15 338 1.6 6.4 0.00 0.00 0.00 43 1012.3
20260502190017 15 293 1.6 12.9 0.00 0.00 0.00 43 1012.6
20260502184517 15 113 1.6 6.4 0.00 0.00 0.00 44 1012.8
20260502183017 15 135 1.6 4.8 0.00 0.00 0.00 44 1013.0
20260502181517 15 180 1.6 4.8 0.00 0.00 0.00 45 1013.2
20260502163016 12 0 1.6 4.8 0.00 0.00 0.00 51 1014.5
20260502161516 12 0 1.6 3.2 0.00 0.00 0.00 53 1014.7
20260502151517 12 0 1.6 4.8 0.00 0.00 0.00 58 1014.9
20260502123016 10 0 1.6 6.4 0.00 0.00 0.00 69 1014.2
20260502121516 10 0 1.6 6.4 0.00 0.00 0.00 72 1014.0
20260502114516 10 0 1.6 6.4 0.00 0.00 0.00 76 1014.0
20260502113016 10 0.0 3.2 0.00 0.00 0.00 80 1014.0
20260502111536 9 0.0 1.6 0.00 0.00 0.00 81 1014.0
20260502110015 9 0.0 3.2 0.00 0.00 0.00 83 1014.1
20260502104516 9 0.0 3.2 0.00 0.00 0.00 84 1013.9
20260502103016 8 0.0 0.0 0.00 0.00 0.00 85 1013.7
20260502101516 8 0.0 1.6 0.00 0.00 0.00 85 1013.5
20260502091516 9 0.0 1.6 0.00 0.00 0.00 86 1013.1
20260502071515 11 0.0 1.6 0.00 0.00 0.00 79 1012.4
20260502070015 11 0.0 0.0 0.00 0.00 0.00 78 1012.6
20260502064535 11 0.0 0.0 0.00 0.00 0.00 77 1012.7
20260502063015 11 0.0 1.6 0.00 0.00 0.00 77 1012.6
20260502061516 12 0.0 1.6 0.00 0.00 0.00 76 1012.7
20260502060035 12 0.0 1.6 0.00 0.00 0.00 76 1013.0
20260502054555 12 0.0 4.8 0.00 0.00 0.00 75 1013.3
20260502053017 12 0.0 3.2 0.00 0.00 0.00 75 1012.9
20260502051517 12 0.0 0.0 0.00 0.00 0.00 75 1012.7
20260502050015 12 0.0 0.0 0.00 0.00 0.00 73 1012.7
20260502044517 12 0.0 1.6 0.00 0.00 0.00 73 1012.7
20260502043017 12 0.0 1.6 0.00 0.00 0.00 72 1012.9